[[{"header":{"parameterUnit":"m.s-1","parameterCategory":2,"la1":30.2992,"la2":30.254,"lo1":-89.0895,"lo2":-89.0443,"dy":0.0025,"dx":0.0025,"nx":19,"ny":19,"refTime":"2026-05-03T21:00:00:Z","depth":"0","parameterNumber":2,"parameterNumberName":"U-component_of_CURRENTS"},"data":[0,0,0,0.2119,0.2121,0.2227,0.2228,0.2336,0.2337,0,0,0,0,0,0,0,0,0,0,0,0.2074,0.2075,0.2119,0.2121,0.2227,0.2228,0.2336,0.2337,0,0,0,0,0,0,0,0,0,0,0,0.2074,0.2075,0.2076,0.2122,0.2227,0.2228,0.2336,0.2262,0,0,0,0,0,0,0,0,0,0,0.2162,0.2122,0.2075,0.2076,0.2122,0.2227,0.2228,0.2259,0.2267,0.2281,0,0.2296,0,0.2324,0.2344,0.2344,0,0,0,0.212,0.2116,0.215,0.2076,0.2123,0.2227,0.2179,0.2264,0.2272,0.2291,0.2298,0.2303,0.2325,0.2345,0.2345,0.2452,0.2452,0,0,0.2114,0.209,0.2144,0.2155,0.215,0.2176,0.2182,0.2269,0.2274,0.2298,0.2306,0.2327,0.2345,0.2346,0.2451,0.2452,0,0,0,0.2098,0.2085,0.2118,0.215,0.2175,0.2179,0.2187,0.227,0.2282,0.2307,0.2328,0.2346,0.2347,0.2451,0.2451,0.2457,0,0,0,0.2094,0.2077,0.2115,0.2102,0.2173,0.2227,0.2185,0.2276,0.2287,0.2328,0.2346,0.2348,0.245,0.2451,0.2456,0.2463,0,0,0,0.207,0.2074,0.2087,0.21,0.2149,0.2226,0.2244,0.2279,0.23,0.2344,0.2348,0.245,0.2451,0.2455,0.2462,0.2522,0,0,0,0.2041,0.2068,0.2086,0.2128,0.2148,0.2228,0.2244,0.2301,0.2338,0.2346,0.245,0.2451,0.2455,0.2461,0.252,0.2704,0.2727,0,0,0.2061,0.207,0.2097,0.2117,0.2188,0.2213,0.2287,0.2336,0.2358,0.2419,0.2422,0.2456,0.2461,0.2521,0.276,0.2782,0,0,0,0.2095,0.2111,0.2137,0.2182,0.2239,0.229,0.2341,0.2366,0.2423,0.2387,0.2475,0.2478,0.2516,0.2624,0.2641,0.2738,0.2456,0.2456,0.2456,0.2086,0.2126,0.2169,0.2224,0.2273,0.2348,0.2392,0.2437,0.245,0.2475,0.2496,0.2563,0.2678,0.2693,0.2791,0.2509,0.2509,0.2509,0.2509,0.2109,0.2131,0.2182,0.2233,0.2293,0.2349,0.2443,0.2464,0.2547,0.2526,0.2563,0.264,0.2713,0.281,0.251,0.251,0.251,0.251,0.251,0.2089,0.2104,0.2135,0.2201,0.2266,0.2345,0.2446,0.2501,0.2556,0.2594,0.2749,0.2751,0.2828,0.2624,0.2625,0.2625,0.2625,0.2625,0.2626,0.2047,0.2083,0.2105,0.2173,0.2208,0.2298,0.2451,0.2547,0.2719,0.2787,0.2789,0.2888,0.2599,0.2585,0.263,0.2629,0.2629,0.2628,0.2628,0.2026,0.2031,0.206,0.2089,0.2185,0.2279,0.245,0.2755,0.2875,0.2997,0.316,0.2909,0.2935,0.2923,0.2918,0.3047,0.3047,0.3047,0.3047,0.1992,0.2004,0.2024,0.206,0.214,0.227,0.2525,0.2807,0.3171,0.3353,0.3382,0.34,0.3379,0.3429,0.3406,0.3409,0.366,0.366,0.3661,0.1973,0.1981,0.1981,0.2022,0.2108,0.2267,0.25,0.2816,0.3395,0.3686,0.3481,0.3455,0.3472,0.343,0.3495,0.3455,0.3455,0,0]},{"header":{"parameterUnit":"m.s-1","parameterCategory":2,"la1":30.2992,"la2":30.254,"lo1":-89.0895,"lo2":-89.0443,"dy":0.0025,"dx":0.0025,"nx":19,"ny":19,"refTime":"2026-05-03T21:00:00:Z","depth":"0","parameterNumber":3,"parameterNumberName":"V-component_of_CURRENTS"},"data":[0,0,0,-0.0891,-0.0893,-0.0992,-0.0993,-0.1136,-0.1137,0,0,0,0,0,0,0,0,0,0,0,-0.0851,-0.0851,-0.0891,-0.0893,-0.0992,-0.0993,-0.1136,-0.1137,0,0,0,0,0,0,0,0,0,0,0,-0.0851,-0.0851,-0.0851,-0.0893,-0.0992,-0.0993,-0.1135,-0.1061,0,0,0,0,0,0,0,0,0,0,-0.0964,-0.0908,-0.0851,-0.0851,-0.0894,-0.0992,-0.0993,-0.1057,-0.1065,-0.109,0,-0.109,0,-0.1113,-0.1145,-0.1146,0,0,0,-0.091,-0.0901,-0.0936,-0.0851,-0.0894,-0.0992,-0.0952,-0.1062,-0.1071,-0.1101,-0.1092,-0.1098,-0.1115,-0.1146,-0.1147,-0.1214,-0.1214,0,0,-0.0904,-0.0868,-0.0929,-0.0941,-0.0901,-0.0949,-0.0955,-0.1067,-0.1064,-0.1093,-0.1101,-0.1118,-0.1147,-0.1148,-0.1214,-0.1214,0,0,0,-0.0877,-0.0864,-0.0896,-0.0935,-0.0949,-0.0951,-0.0959,-0.1059,-0.1072,-0.1103,-0.1119,-0.1148,-0.1149,-0.1214,-0.1214,-0.1135,0,0,0,-0.0875,-0.0848,-0.0893,-0.0872,-0.0946,-0.1001,-0.0948,-0.1064,-0.1077,-0.1118,-0.1148,-0.115,-0.1215,-0.1214,-0.1138,-0.1073,0,0,0,-0.085,-0.0845,-0.0852,-0.087,-0.0907,-0.1,-0.1019,-0.1067,-0.1087,-0.1146,-0.1151,-0.1215,-0.1214,-0.114,-0.1078,-0.1013,0,0,0,-0.0818,-0.0798,-0.0851,-0.0836,-0.0906,-0.0944,-0.1018,-0.1057,-0.1098,-0.1148,-0.1215,-0.1214,-0.1141,-0.1082,-0.1017,-0.0748,-0.0709,0,0,-0.0774,-0.0792,-0.0785,-0.0834,-0.0842,-0.0933,-0.0951,-0.1039,-0.1103,-0.1183,-0.1185,-0.1137,-0.1079,-0.1014,-0.0721,-0.0682,0,0,0,-0.0759,-0.0754,-0.0764,-0.0784,-0.0833,-0.0875,-0.097,-0.1018,-0.1092,-0.1124,-0.115,-0.1115,-0.1076,-0.0923,-0.0893,-0.088,-0.1212,-0.1212,-0.1212,-0.0654,-0.0695,-0.068,-0.0733,-0.0759,-0.0845,-0.0885,-0.0971,-0.1047,-0.1066,-0.1061,-0.0968,-0.0805,-0.0779,-0.0771,-0.109,-0.109,-0.1089,-0.1089,-0.0585,-0.0571,-0.0624,-0.0626,-0.0681,-0.0709,-0.0815,-0.0874,-0.0923,-0.1004,-0.0971,-0.086,-0.074,-0.0744,-0.1084,-0.1085,-0.1086,-0.1086,-0.1087,-0.0512,-0.0507,-0.0525,-0.0529,-0.0538,-0.0612,-0.0566,-0.0702,-0.0818,-0.0808,-0.0638,-0.0637,-0.0628,-0.0789,-0.0789,-0.0788,-0.0787,-0.0787,-0.0787,-0.0418,-0.0437,-0.0399,-0.0421,-0.0392,-0.0369,-0.0423,-0.0414,-0.0437,-0.0502,-0.0501,-0.0567,-0.0876,-0.0874,-0.0778,-0.0779,-0.0781,-0.0781,-0.0782,-0.031,-0.0319,-0.0249,-0.0212,-0.0133,0.0067,-0.0017,0.0126,0.0048,0.0105,-0.0123,-0.0344,-0.0334,-0.0356,-0.0342,-0.0114,-0.0114,-0.0114,-0.0113,-0.0213,-0.0225,-0.0079,0.0028,0.016,0.0278,0.0731,0.0824,0.0567,0.0435,0.0151,0.0134,0.0106,0.0135,0.0101,0.0121,0.0461,0.0461,0.0461,-0.012,-0.0091,0.006,0.0149,0.031,0.061,0.1169,0.1532,0.1037,0.0469,0.0113,0.0089,0.0033,-0.0011,0.0002,-0.0046,-0.0028,0,0]}],[{"header":{"parameterUnit":"m.s-1","parameterCategory":2,"la1":30.2992,"la2":30.254,"lo1":-89.0895,"lo2":-89.0443,"dy":0.0025,"dx":0.0025,"nx":19,"ny":19,"refTime":"2026-05-03T21:00:00:Z","depth":"2","parameterNumber":2,"parameterNumberName":"U-component_of_CURRENTS"},"data":[0,0,0,0.1996,0.1999,0.2103,0.2103,0.2197,0.2198,0,0,0,0,0,0,0,0,0,0,0,0.1952,0.1953,0.1996,0.1999,0.2103,0.2103,0.2197,0.2198,0,0,0,0,0,0,0,0,0,0,0,0.1951,0.1952,0.1953,0.1999,0.2103,0.2103,0.2197,0.2126,0,0,0,0,0,0,0,0,0,0,0.2029,0.1992,0.1952,0.1953,0.2,0.2103,0.2103,0.2123,0.213,0.2141,0,0.2161,0,0.2189,0.2204,0.2204,0,0,0,0.1991,0.1986,0.2022,0.1953,0.2001,0.2102,0.2054,0.2127,0.2136,0.2151,0.2162,0.2166,0.219,0.2204,0.2205,0.2321,0.2321,0,0,0.1985,0.1963,0.2016,0.2027,0.2032,0.205,0.2057,0.2133,0.2138,0.2163,0.2169,0.2192,0.2205,0.2206,0.232,0.2321,0,0,0,0.1974,0.1959,0.1993,0.2023,0.2049,0.2054,0.2061,0.2134,0.2148,0.217,0.2193,0.2206,0.2207,0.232,0.2321,0.2364,0,0,0,0.197,0.1954,0.1991,0.1977,0.2048,0.2098,0.206,0.2142,0.2152,0.2192,0.2206,0.2208,0.2319,0.232,0.2361,0.2373,0,0,0,0.1946,0.1951,0.1966,0.1976,0.2027,0.2098,0.2116,0.2145,0.2167,0.2204,0.2208,0.2319,0.232,0.2359,0.237,0.2435,0,0,0,0.1916,0.1941,0.1965,0.2005,0.2026,0.2112,0.2116,0.2171,0.2204,0.2206,0.2319,0.232,0.2358,0.2368,0.2432,0.2403,0.2413,0,0,0.1929,0.1941,0.1967,0.1993,0.207,0.2097,0.2187,0.2223,0.2229,0.2288,0.2292,0.2362,0.237,0.2434,0.2483,0.2491,0,0,0,0.1961,0.1978,0.2006,0.2058,0.2123,0.2192,0.2239,0.227,0.2326,0.2259,0.2378,0.2382,0.2421,0.2398,0.2405,0.2327,0.2327,0.2327,0.2327,0.1931,0.1982,0.203,0.2103,0.2165,0.2263,0.2325,0.2377,0.2374,0.2406,0.243,0.2523,0.2499,0.2504,0.2447,0.2447,0.2448,0.2448,0.2448,0.1943,0.1965,0.2046,0.2105,0.2195,0.2273,0.2409,0.2435,0.2536,0.2494,0.2531,0.2459,0.2514,0.2452,0.2451,0.245,0.245,0.245,0.245,0.1906,0.1922,0.1967,0.2055,0.215,0.2269,0.2391,0.2485,0.2563,0.2613,0.2598,0.2596,0.255,0.2634,0.2635,0.2635,0.2635,0.2636,0.2636,0.183,0.1883,0.1906,0.2003,0.2051,0.217,0.2373,0.2494,0.2629,0.2646,0.2646,0.2586,0.258,0.2562,0.2641,0.264,0.264,0.2639,0.2639,0.1768,0.1784,0.1821,0.1857,0.1983,0.2045,0.2261,0.2493,0.2642,0.2706,0.268,0.2677,0.2664,0.2657,0.2641,0.2737,0.2737,0.2737,0.2737,0.1697,0.1719,0.1751,0.1799,0.189,0.1995,0.2104,0.229,0.2516,0.256,0.2567,0.2494,0.2495,0.2467,0.2465,0.2442,0.2486,0.2486,0.2485,0.1642,0.1671,0.1672,0.1747,0.1842,0.1923,0.1939,0.2006,0.226,0.2468,0.2455,0.2734,0.2643,0.2638,0.2606,0.2598,0.2566,0,0]},{"header":{"parameterUnit":"m.s-1","parameterCategory":2,"la1":30.2992,"la2":30.254,"lo1":-89.0895,"lo2":-89.0443,"dy":0.0025,"dx":0.0025,"nx":19,"ny":19,"refTime":"2026-05-03T21:00:00:Z","depth":"2","parameterNumber":3,"parameterNumberName":"V-component_of_CURRENTS"},"data":[0,0,0,-0.001,-0.0012,-0.0149,-0.015,-0.0349,-0.035,0,0,0,0,0,0,0,0,0,0,0,0.0033,0.0033,-0.001,-0.0012,-0.0149,-0.015,-0.0348,-0.035,0,0,0,0,0,0,0,0,0,0,0,0.0033,0.0033,0.0032,-0.0013,-0.0149,-0.015,-0.0348,-0.0245,0,0,0,0,0,0,0,0,0,0,-0.0111,-0.006,0.0033,0.0032,-0.0013,-0.0149,-0.015,-0.024,-0.0251,-0.0286,0,-0.0295,0,-0.0316,-0.0362,-0.0362,0,0,0,-0.0037,-0.005,-0.0081,0.0032,-0.0014,-0.0148,-0.0094,-0.0246,-0.0259,-0.0301,-0.0298,-0.0306,-0.0319,-0.0363,-0.0364,-0.0461,-0.0461,0,0,-0.0029,-0.0004,-0.0072,-0.0089,-0.0036,-0.009,-0.0098,-0.0254,-0.0265,-0.0299,-0.031,-0.0322,-0.0364,-0.0365,-0.0462,-0.0461,0,0,0,0.0009,0.0002,-0.0026,-0.0081,-0.0097,-0.0093,-0.0103,-0.0259,-0.0266,-0.0312,-0.0325,-0.0365,-0.0367,-0.0462,-0.0462,-0.0367,0,0,0,0.0012,0.0026,-0.0022,-0.001,-0.0094,-0.0176,-0.0104,-0.0256,-0.0273,-0.0324,-0.0365,-0.0369,-0.0462,-0.0462,-0.037,-0.029,0,0,0,0.0037,0.0028,0.0018,-0.0008,-0.0055,-0.0174,-0.0192,-0.026,-0.028,-0.0363,-0.0369,-0.0462,-0.0462,-0.0372,-0.0296,-0.0255,0,0,0,0.0058,0.0069,0.0019,0.0025,-0.0054,-0.0098,-0.0191,-0.0254,-0.0317,-0.0366,-0.0462,-0.0462,-0.0373,-0.03,-0.0259,-0.0069,-0.0036,0,0,0.0092,0.0073,0.0079,0.0032,0.003,-0.0082,-0.0105,-0.0234,-0.0321,-0.0418,-0.0421,-0.0369,-0.0297,-0.0256,-0.0038,-0.0005,0,0,0,0.0104,0.0111,0.01,0.0082,0.0028,-0.0015,-0.0144,-0.0204,-0.0309,-0.0352,-0.0384,-0.0342,-0.0319,-0.0213,-0.0188,-0.0459,-0.0459,-0.0459,-0.0459,0.0175,0.0156,0.0176,0.0145,0.0114,0.0014,-0.0032,-0.0141,-0.0252,-0.0282,-0.0278,-0.0193,-0.008,-0.0059,-0.0314,-0.0314,-0.0314,-0.0313,-0.0313,0.0248,0.0265,0.0244,0.0248,0.02,0.0157,0.0052,-0.003,-0.0103,-0.0201,-0.0185,-0.0133,-0.0024,-0.0306,-0.0307,-0.0308,-0.0309,-0.031,-0.031,0.0299,0.031,0.0302,0.032,0.0313,0.0236,0.0262,0.0137,0.0006,0.0016,0.0086,0.0086,-0.0114,-0.0004,-0.0003,-0.0003,-0.0002,-0.0002,-0.0002,0.0348,0.0354,0.0382,0.0395,0.0409,0.0424,0.0366,0.0372,0.0328,0.0235,0.0235,-0.0089,-0.0099,-0.0097,0.0007,0.0005,0.0004,0.0003,0.0003,0.0403,0.0402,0.0461,0.0488,0.0566,0.0714,0.0666,0.0761,0.0697,0.074,0.0353,0.0342,0.0334,0.0314,0.0325,0.0532,0.0532,0.0532,0.0532,0.0438,0.0446,0.053,0.0614,0.075,0.0848,0.1094,0.1044,0.0868,0.0686,0.0678,0.064,0.0618,0.0619,0.0592,0.0605,0.0885,0.0885,0.0885,0.0474,0.0499,0.0569,0.0658,0.0831,0.1051,0.1296,0.1223,0.095,0.0885,0.06,0.0583,0.0504,0.0478,0.0455,0.0421,0.0431,0,0]}],[{"header":{"parameterUnit":"m.s-1","parameterCategory":2,"la1":30.2992,"la2":30.254,"lo1":-89.0895,"lo2":-89.0443,"dy":0.0025,"dx":0.0025,"nx":19,"ny":19,"refTime":"2026-05-03T21:00:00:Z","depth":"4","parameterNumber":2,"parameterNumberName":"U-component_of_CURRENTS"},"data":[0,0,0,0.102,0.1024,0.1209,0.1209,0.1353,0.1354,0,0,0,0,0,0,0,0,0,0,0,0.0959,0.0961,0.1019,0.1024,0.1209,0.1209,0.1352,0.1354,0,0,0,0,0,0,0,0,0,0,0,0.0959,0.096,0.0962,0.1025,0.1208,0.1209,0.1352,0.1235,0,0,0,0,0,0,0,0,0,0,0.1067,0.1036,0.096,0.0962,0.1026,0.1208,0.1209,0.1231,0.1243,0.1243,0,0.1285,0,0.1321,0.1361,0.1362,0,0,0,0.1022,0.1027,0.1066,0.0963,0.1028,0.1208,0.1125,0.1238,0.1251,0.1258,0.1287,0.1293,0.1324,0.1362,0.1363,0.1485,0.1485,0,0,0.1012,0.0999,0.1058,0.1075,0.1091,0.1119,0.113,0.1247,0.1271,0.1288,0.1297,0.1326,0.1363,0.1364,0.1484,0.1485,0,0,0,0.0984,0.0992,0.1031,0.1068,0.1109,0.1124,0.1138,0.1266,0.1277,0.1299,0.1328,0.1363,0.1365,0.1484,0.1484,0.1533,0,0,0,0.0978,0.0976,0.1027,0.1022,0.1108,0.1206,0.1154,0.1269,0.1284,0.1327,0.1364,0.1366,0.1483,0.1484,0.1531,0.1547,0,0,0,0.0948,0.0973,0.0997,0.1021,0.1101,0.1205,0.1224,0.1274,0.1301,0.1362,0.1366,0.1483,0.1484,0.1529,0.1544,0.1599,0,0,0,0.0923,0.0954,0.0997,0.1052,0.1099,0.1192,0.1224,0.1312,0.1366,0.1364,0.1483,0.1484,0.1528,0.1541,0.1596,0.1393,0,0,0,0.0933,0.0955,0.0985,0.1027,0.1103,0.1165,0.1262,0.1352,0.138,0.1436,0.1441,0.1532,0.1543,0.1598,0.1462,0,0,0,0,0.0969,0.0991,0.1022,0.109,0.1162,0.1249,0.1337,0.1386,0.1482,0.142,0.1541,0.1547,0.158,0.1454,0.149,0.149,0.149,0.149,0.1489,0.0947,0.0995,0.1047,0.1119,0.119,0.1319,0.1399,0.1481,0.1505,0.156,0.1594,0.1677,0.1546,0.1604,0.1604,0.1605,0.1605,0.1605,0.1605,0.0947,0.0966,0.1059,0.1124,0.1226,0.1327,0.1471,0.1531,0.1663,0.1648,0.1679,0.1522,0.161,0.1609,0.1608,0.1608,0.1607,0.1607,0.1607,0.0908,0.0917,0.0985,0.1086,0.1213,0.1347,0.1472,0.16,0.1696,0.1756,0.1642,0.172,0.1709,0.1789,0.1789,0.1789,0.179,0.179,0.179,0.0818,0.0882,0.0929,0.105,0.113,0.1272,0.1492,0.1581,0.1711,0.1677,0.1786,0.1739,0.1733,0.172,0.1795,0.1794,0.1794,0.1793,0.1793,0.0739,0.0781,0.0837,0.0904,0.1067,0.1159,0.1375,0.152,0.1611,0.1632,0.1635,0.1642,0.1609,0.1606,0.1586,0.1625,0.1623,0.1621,0,0.0672,0.0699,0.0762,0.0831,0.0919,0.108,0.1169,0.1314,0.1454,0.1404,0.1595,0.1591,0.1596,0.155,0.1545,0.1515,0,0,0,0.0623,0.0654,0.0674,0.0757,0.0844,0.1009,0.1189,0.1205,0.1432,0.1467,0.1562,0.1578,0.1681,0.181,0.1776,0.1768,0.1745,0,0]},{"header":{"parameterUnit":"m.s-1","parameterCategory":2,"la1":30.2992,"la2":30.254,"lo1":-89.0895,"lo2":-89.0443,"dy":0.0025,"dx":0.0025,"nx":19,"ny":19,"refTime":"2026-05-03T21:00:00:Z","depth":"4","parameterNumber":3,"parameterNumberName":"V-component_of_CURRENTS"},"data":[0,0,0,0.0369,0.0368,0.0318,0.0317,0.0225,0.0224,0,0,0,0,0,0,0,0,0,0,0,0.0385,0.0385,0.0369,0.0368,0.0318,0.0317,0.0225,0.0224,0,0,0,0,0,0,0,0,0,0,0,0.0385,0.0385,0.0385,0.0368,0.0318,0.0317,0.0225,0.0267,0,0,0,0,0,0,0,0,0,0,0.0318,0.0343,0.0385,0.0385,0.0368,0.0318,0.0317,0.0269,0.0264,0.0243,0,0.0242,0,0.0236,0.0218,0.0218,0,0,0,0.0356,0.0348,0.0334,0.0385,0.0367,0.0318,0.0337,0.0267,0.0261,0.0236,0.0241,0.0238,0.0234,0.0217,0.0217,0.0206,0.0207,0,0,0.0359,0.0372,0.0338,0.0331,0.0363,0.0339,0.0336,0.0264,0.0261,0.0241,0.0235,0.0232,0.0217,0.0216,0.0206,0.0206,0,0,0,0.0375,0.0374,0.0362,0.0335,0.0331,0.0338,0.0334,0.0264,0.026,0.0234,0.0231,0.0216,0.0215,0.0205,0.0206,0.0307,0,0,0,0.0376,0.0384,0.0364,0.037,0.0333,0.0301,0.0336,0.0265,0.0257,0.0232,0.0216,0.0214,0.0204,0.0205,0.0303,0.0351,0,0,0,0.0386,0.0384,0.0382,0.0371,0.0355,0.0302,0.0294,0.0263,0.0255,0.0218,0.0214,0.0204,0.0205,0.03,0.0344,0.0352,0,0,0,0.0395,0.0409,0.0382,0.0398,0.0356,0.0361,0.0295,0.0284,0.026,0.0216,0.0205,0.0206,0.0299,0.0341,0.0349,0.0298,0,0,0,0.0421,0.0412,0.0423,0.0399,0.0425,0.0367,0.0392,0.0327,0.027,0.0222,0.0222,0.0305,0.0344,0.0351,0.0372,0,0,0,0,0.0438,0.045,0.0452,0.0459,0.0448,0.0451,0.0393,0.0367,0.0331,0.0263,0.0302,0.0323,0.0324,0.0285,0.0212,0.0212,0.0212,0.0211,0.0211,0.0478,0.0483,0.0516,0.0524,0.053,0.0507,0.0502,0.0455,0.0393,0.0397,0.0404,0.0478,0.0443,0.0398,0.0399,0.0399,0.0399,0.04,0.04,0.053,0.0549,0.0571,0.061,0.0616,0.0639,0.0604,0.0569,0.0548,0.0493,0.0488,0.0394,0.041,0.0408,0.0406,0.0405,0.0405,0.0404,0.0403,0.0553,0.0566,0.06,0.0662,0.0721,0.0723,0.0753,0.0716,0.0639,0.0651,0.0559,0.0533,0.0524,0.0633,0.0633,0.0634,0.0634,0.0634,0.0634,0.0555,0.0591,0.0644,0.0718,0.0776,0.0832,0.0841,0.0815,0.0745,0.0668,0.0669,0.0555,0.0548,0.0536,0.0638,0.0638,0.0637,0.0637,0.0637,0.0562,0.0584,0.066,0.0722,0.0846,0.0889,0.0916,0.0837,0.0802,0.0725,0.0655,0.0653,0.0601,0.0592,0.0578,0.0698,0.0698,0.0698,0,0.0556,0.0575,0.0663,0.0754,0.0845,0.0909,0.0876,0.0842,0.0745,0.0727,0.0775,0.07,0.0695,0.0639,0.063,0.0616,0,0,0,0.0551,0.0583,0.0633,0.073,0.0839,0.0843,0.0862,0.0815,0.0777,0.0715,0.0691,0.0693,0.0684,0.0651,0.0565,0.0556,0.0531,0,0]}]]